Weather History for NW Arkansas Airport, AR

Change the Weather History Date:

Thursday, December 6, 2012

  Actual Average Record
Temperature  
Mean Temperature 49 °F -  
Max Temperature 62 °F - - ()
Min Temperature 36 °F - - ()
Degree Days  
Heating Degree Days 16    
Moisture  
Dew Point 42 °F    
Average Humidity 79    
Maximum Humidity 96    
Minimum Humidity 52    
Precipitation  
Precipitation 0.00 in - - ()
Sea Level Pressure  
Sea Level Pressure 29.93 in    
Wind  
Wind Speed 5 mph (SSE)    
Max Wind Speed 10 mph    
Max Gust Speed -    
Visibility 10 miles    
Events      
T = Trace of Precipitation, MM = Missing Value Source: NWS Daily Summary

Daily Weather History Graph

Daily Weather History Graph

Search for Another Location

Airport:

Trip Planner

Search our weather history database for the weather conditions in past years. The results will help you decide how hot, cold, wet, or windy it might be!

Date:

Astronomy

Dec. 06, 2012 Rise Set
Actual Time 7:14 AM CST 5:02 PM CST
Civil Twilight 6:46 AM CST 5:30 PM CST
Nautical Twilight 6:14 AM CST 6:02 PM CST
Astronomical Twilight 5:43 AM CST 6:33 PM CST
Moon No Moon Rise 12:17 PM CST (12/6)
Length of Visible Light 10h 44m
Length of Day
9h 47m
Waning Gibbous, 49% of the Moon is Illuminated
Dec 6
Waning Gibbous
Dec 13
New
Dec 19
First Quarter
Dec 28
Full
Jan 4
Last Quarter

Hourly Weather History & Observations

Time (CST) Temp. Windchill Dew Point Humidity Pressure Visibility Wind Dir Wind Speed Gust Speed Precip Events Conditions
12:53 AM 42.1 °F 40.2 °F 34.0 °F 73% 30.05 in 10.0 mi ESE 3.5 mph - N/A   Clear
1:53 AM 42.1 °F 39.2 °F 35.1 °F 76% 30.03 in 10.0 mi SE 4.6 mph - N/A   Clear
2:53 AM 42.1 °F 39.2 °F 33.1 °F 70% 30.00 in 10.0 mi ESE 4.6 mph - N/A   Clear
3:53 AM 37.0 °F - 33.1 °F 86% 29.99 in 10.0 mi Calm Calm - N/A   Clear
4:53 AM 37.0 °F - 33.1 °F 86% 29.99 in 10.0 mi Calm Calm - N/A   Clear
5:53 AM 36.0 °F - 33.1 °F 89% 29.99 in 10.0 mi Calm Calm - N/A   Clear
6:53 AM 37.9 °F - 35.1 °F 89% 29.98 in 10.0 mi Calm Calm - N/A   Clear
7:53 AM 39.0 °F 36.8 °F 37.0 °F 93% 29.99 in 7.0 mi ENE 3.5 mph - N/A   Clear
8:53 AM 43.0 °F 41.3 °F 41.0 °F 93% 29.98 in 8.0 mi ESE 3.5 mph - N/A   Clear
9:53 AM 50.0 °F - 45.0 °F 83% 29.97 in 10.0 mi SSE 9.2 mph - N/A   Clear
10:53 AM 55.0 °F - 46.9 °F 74% 29.95 in 10.0 mi SSE 10.4 mph - N/A   Clear
11:53 AM 59.0 °F - 46.9 °F 64% 29.92 in 10.0 mi South 9.2 mph - N/A   Clear
12:53 PM 61.0 °F - 45.0 °F 56% 29.89 in 10.0 mi SSW 8.1 mph - N/A   Clear
1:53 PM 62.1 °F - 46.0 °F 56% 29.86 in 10.0 mi SSE 9.2 mph - N/A   Clear
2:53 PM 62.1 °F - 44.1 °F 52% 29.84 in 10.0 mi South 10.4 mph - N/A   Clear
3:53 PM 62.1 °F - 45.0 °F 53% 29.84 in 10.0 mi South 10.4 mph - N/A   Clear
4:53 PM 57.0 °F - 45.0 °F 64% 29.85 in 10.0 mi South 10.4 mph - N/A   Clear
5:53 PM 51.1 °F - 45.0 °F 80% 29.86 in 10.0 mi SSE 9.2 mph - N/A   Clear
6:53 PM 51.1 °F - 45.0 °F 80% 29.86 in 10.0 mi SSE 3.5 mph - N/A   Clear
7:53 PM 48.0 °F - 45.0 °F 89% 29.88 in 10.0 mi West 4.6 mph - N/A   Clear
8:53 PM 48.9 °F - 46.0 °F 90% 29.89 in 10.0 mi West 4.6 mph - N/A   Mostly Cloudy
9:53 PM 52.0 °F - 48.9 °F 89% 29.89 in 10.0 mi SSW 10.4 mph - N/A   Overcast
10:17 PM 50.0 °F - 48.2 °F 94% 29.89 in 10.0 mi South 6.9 mph - N/A   Partly Cloudy
10:53 PM 51.1 °F - 48.0 °F 89% 29.88 in 10.0 mi SSW 10.4 mph - N/A   Clear
11:53 PM 48.0 °F - 46.9 °F 96% 29.88 in 10.0 mi South 5.8 mph - N/A   Clear